Regional Weather Roundup
Issued by NWS Memphis, TN

Home | Current Version | Previous Version | Text Only | Print | Product List | Glossary On
Versions: 1 2 3 4 5 6 7 8 9 10 11 12 13 14 15 16 17 18 19 20 21 22 23 24 25 26 27 28 29 30 31 32 33 34 35 36 37 38 39 40 41 42 43 44 45 46 47 48 49 50
000
ASUS44 KMEG 221010
RWRMEG
MEMPHIS CWA HOURLY WEATHER ROUNDUP
NATIONAL WEATHER SERVICE MEMPHIS TN
400 AM CST MON JAN 22 2018

...WEST TENNESSEE...

CITY           SKY/WX    TMP DP  RH WIND       PRES   REMARKS
MEMPHIS INTL   LGT RAIN  62  49  62 S26G33    29.77S
NWS MEMPHIS      N/A     62 N/A N/A MISG        N/A
JACKSON        CLOUDY    61  46  57 S15G30    29.80F
COVINGTON      CLOUDY    61  46  59 S16G26    29.75F
SOMERVILLE     MOCLDY    63  46  55 S15G23    29.77F
BOLIVAR        CLOUDY    61  46  59 SE15G26   29.82F
LEXINGTON      PTCLDY    59  45  58 S9G22     29.87F
SELMER         CLOUDY    59  45  58 S15G26    29.87F
SAVANNAH       MOCLDY    61  45  55 S15G23    29.89F
DYERSBURG      CLOUDY    62  47  57 S15G29    29.73F
UNION CITY     PTCLDY    61  46  59 S23G32    29.73F
PARIS          CLOUDY    61  46  59 S18G26    29.79F
HUNTINGDON     CLOUDY    61  46  59 S17G25    29.81F


...EASTERN ARKANSAS...

CITY           SKY/WX    TMP DP  RH WIND       PRES   REMARKS
JONESBORO      RAIN      55  55 100 SW17      29.76F
WEST MEMPHIS   LGT RAIN  59  54  83 S21G28    29.75R
BATESVILLE     CLOUDY    55  52  89 S8        29.73R
NEWPORT        LGT RAIN  53  50  89 S20       29.74S
WALNUT RIDGE   LGT RAIN  55  54  96 S20       29.72R
BLYTHEVILLE    TSTM      60  59  96 S14G25    29.74R
SEARCY         CLOUDY    50  50 100 S9        29.77R
STUTTGART      LGT RAIN  50  48  93 S8        29.80F
PINE BLUFF       N/A    N/A N/A N/A MISG      29.79F
MONTICELLO     HVY RAIN  62  59  90 S8        29.78F FOG


...NORTH MISSISSIPPI...

CITY           SKY/WX    TMP DP  RH WIND       PRES   REMARKS
TUPELO         FAIR      59  43  55 SE15G26   29.90F
BATESVILLE     MOCLDY    62  43  50 SE14      29.83S
TUNICA         RAIN      55  52  88 S18G25    29.79S
CLARKSDALE     CLOUDY    59  59 100 S18       29.80F FOG
CORINTH        MOCLDY    59  45  58 SE16G25   29.88F
GREENWOOD      MOCLDY    61  55  81 S21G26    29.84F
COLUMBUS       FAIR      58  47  67 SE12      29.93F
STARKVILLE     FAIR      57  50  77 S12G18    29.94S
GOLDEN TRIANGL FAIR      56  46  69 SE14      29.95F


...SOUTHEAST MISSOURI...

CITY           SKY/WX    TMP DP  RH WIND       PRES   REMARKS
KENNETT        RAIN      59  55  88 SW25G35   29.75R
MALDEN         TSTM      55  52  88 S18       29.73R
WEST PLAINS    CLOUDY    51  50  96 SW5       29.64F
POPLAR BLUFF   TSTM      56  54  93 S13       29.70R FOG
CAPE GIRARDEAU CLOUDY    59  47  64 S25G38    29.65F


...NORTHWEST ALABAMA...

CITY           SKY/WX    TMP DP  RH WIND       PRES   REMARKS
MUSCLE SHOALS  CLOUDY    59  42  53 S10       29.97F


...MIDDLE TENNESSEE...

CITY           SKY/WX    TMP DP  RH WIND       PRES   REMARKS
NASHVILLE      MOCLDY    58  43  57 S14       29.95F
CLARKSVILLE    FAIR      58  42  55 S14G21    29.87F
COLUMBIA       MOCLDY    57  43  58 S10G17    29.93F


...WESTERN KENTUCKY...

CITY           SKY/WX    TMP DP  RH WIND       PRES   REMARKS
PADUCAH        FAIR      60  45  57 S17G40    29.71F
FORT CAMPBELL  FAIR      58  43  57 S13G21    29.86F


...CENTRAL ARKANSAS...

CITY           SKY/WX    TMP DP  RH WIND       PRES   REMARKS
LITTLE ROCK    CLOUDY    49  49 100 S6        29.79R


SKY/WX REPORTED AS FAIR MEANS FEW OR NO CLOUDS BELOW
12 THOUSAND FEET.





USA.gov is the U.S. government's official web portal to all federal, state and local government web resources and services.